Location: Bethany Fellowship Church
(32.6216°N, 97.3708°W)
Time: 03:39:04
(UTC+00:00)

IGS 5A - Pass Details

Date: 11 December 2025
Orbit: 551 x 554 km, 97.4° (Epoch: 8 January)

Event Time Altitude Azimuth Distance (km) Brightness Sun altitude
Rises 12:46:13 0° 1° (N) 2,738 6.7 -7.6°
Reaches altitude 10° 12:48:29 10° 352° (N) 1,838 5.7 -7.2°
Maximum altitude 12:52:07 35° 286° (WNW) 897 3.9 -6.5°
Drops below altitude 10° 12:55:44 10° 220° (SW) 1,825 5.8 -5.8°
Sets 12:57:58 0° 211° (SSW) 2,714 6.8 -5.3°
